| time (UTC) | temp F | wind direction | speed MPH | gust MPH | rain 1hr in | rain 24hr in | rain mn in | humidity % | barometer mb |
| 20260902040037 | 66 | 275 | 3.0 | 17.0 | 0.00 | 0.00 | 0.00 | 54 | 1014.3 |
| 20260902034534 | 66 | 258 | 1.0 | 11.0 | 0.00 | 0.00 | 0.00 | 57 | 1014.4 |
| 20260902033032 | 66 | 258 | 0.0 | 18.0 | 0.00 | 0.00 | 0.00 | 57 | 1014.4 |
| 20260902031539 | 66 | 241 | 4.0 | 16.0 | 0.00 | 0.00 | 0.00 | 57 | 1014.4 |
| 20260902030027 | 66 | 257 | 4.0 | 12.0 | 0.00 | 0.00 | 0.00 | 58 | 1014.9 |
| 20260902024524 | 65 | 239 | 5.0 | 19.0 | 0.00 | 0.00 | 0.00 | 62 | 1015.0 |
| 20260902023023 | 65 | 263 | 4.0 | 15.0 | 0.00 | 0.00 | 0.00 | 64 | 1015.4 |
| 20260902021530 | 64 | 232 | 3.0 | 15.0 | 0.00 | 0.00 | 0.00 | 65 | 1015.7 |
| 20260902020015 | 63 | 260 | 0.0 | 9.0 | 0.00 | 0.00 | 0.00 | 67 | 1016.0 |
| 20260902014534 | 63 | 341 | 0.0 | 8.0 | 0.00 | 0.01 | 0.00 | 66 | 1016.3 |
| 20260902013013 | 63 | 256 | 0.0 | 7.0 | 0.00 | 0.01 | 0.00 | 66 | 1016.6 |
| 20260902011511 | 61 | 293 | 0.0 | 11.0 | 0.00 | 0.01 | 0.00 | 68 | 1016.8 |
| 20260902010006 | 61 | 280 | 0.0 | 4.0 | 0.00 | 0.01 | 0.00 | 68 | 1016.9 |
| 20260902004504 | 61 | 228 | 0.0 | 1.0 | 0.00 | 0.01 | 0.00 | 69 | 1017.1 |
| 20260902003003 | 60 | 235 | 0.0 | 2.0 | 0.00 | 0.01 | 0.00 | 70 | 1017.1 |
| 20260902001557 | 59 | 299 | 3.0 | 16.0 | 0.00 | 0.01 | 0.00 | 72 | 1017.2 |
| 20260902000053 | 58 | 206 | 5.0 | 13.0 | 0.00 | 0.01 | 0.00 | 73 | 1017.3 |
| 20260901234651 | 58 | 254 | 4.0 | 11.0 | 0.00 | 0.01 | 0.00 | 74 | 1017.3 |
| 20260901233054 | 57 | 28 | 1.0 | 12.0 | 0.00 | 0.01 | 0.00 | 74 | 1017.1 |
| 20260901231549 | 57 | 281 | 1.0 | 13.0 | 0.00 | 0.01 | 0.00 | 73 | 1017.1 |
| 20260901230052 | 57 | 280 | 4.0 | 15.0 | 0.00 | 0.01 | 0.00 | 75 | 1017.0 |
| 20260901224549 | 56 | 280 | 2.0 | 9.0 | 0.00 | 0.01 | 0.00 | 76 | 1017.2 |
| 20260901223049 | 56 | 223 | 4.0 | 11.0 | 0.00 | 0.01 | 0.00 | 76 | 1017.3 |
| 20260901221602 | 55 | 293 | 3.0 | 10.0 | 0.00 | 0.01 | 0.00 | 78 | 1017.1 |
| 20260901220036 | 55 | 318 | 0.0 | 7.0 | 0.00 | 0.01 | 0.00 | 79 | 1017.0 |
| 20260901214534 | 54 | 263 | 0.0 | 11.0 | 0.00 | 0.01 | 0.00 | 80 | 1016.9 |
| 20260901213035 | 53 | 274 | 2.0 | 9.0 | 0.00 | 0.01 | 0.00 | 82 | 1016.7 |
| 20260901211537 | 51 | 258 | 1.0 | 7.0 | 0.00 | 0.01 | 0.00 | 84 | 1016.4 |
| 20260901210033 | 51 | 50 | 0.0 | 6.0 | 0.00 | 0.01 | 0.00 | 84 | 1016.6 |
| 20260901204535 | 51 | 270 | 1.0 | 6.0 | 0.00 | 0.01 | 0.00 | 84 | 1016.6 |
| 20260901203046 | 51 | 351 | 0.0 | 0.0 | 0.00 | 0.01 | 0.00 | 85 | 1016.5 |
| 20260901201542 | 51 | 296 | 0.0 | 0.0 | 0.00 | 0.01 | 0.00 | 85 | 1016.5 |
| 20260901200032 | 51 | 303 | 0.0 | 0.0 | 0.00 | 0.01 | 0.00 | 86 | 1016.4 |
| 20260901194527 | 51 | 314 | 0.0 | 0.0 | 0.00 | 0.01 | 0.00 | 86 | 1016.2 |
| 20260901193024 | 52 | 336 | 0.0 | 0.0 | 0.00 | 0.01 | 0.00 | 84 | 1016.2 |
| 20260901191523 | 52 | 255 | 0.0 | 0.0 | 0.00 | 0.01 | 0.00 | 84 | 1016.1 |
| 20260901190021 | 53 | 265 | 0.0 | 8.0 | 0.00 | 0.01 | 0.00 | 83 | 1015.8 |
| 20260901184520 | 53 | 240 | 2.0 | 12.0 | 0.00 | 0.01 | 0.00 | 82 | 1016.1 |
| 20260901183019 | 53 | 275 | 1.0 | 7.0 | 0.00 | 0.01 | 0.00 | 82 | 1016.2 |
| 20260901181519 | 53 | 355 | 2.0 | 7.0 | 0.00 | 0.01 | 0.00 | 82 | 1016.6 |
| 20260901180016 | 52 | 310 | 0.0 | 0.0 | 0.00 | 0.01 | 0.00 | 83 | 1016.7 |
| 20260901174515 | 52 | 246 | 0.0 | 0.0 | 0.00 | 0.01 | 0.00 | 84 | 1016.2 |
| 20260901173043 | 52 | 336 | 0.0 | 0.0 | 0.00 | 0.01 | 0.00 | 83 | 1016.3 |
| 20260901171511 | 53 | 315 | 0.0 | 5.0 | 0.00 | 0.01 | 0.00 | 84 | 1016.5 |
| 20260901170014 | 53 | 256 | 1.0 | 10.0 | 0.00 | 0.01 | 0.00 | 83 | 1017.3 |
| 20260901164508 | 53 | 249 | 0.0 | 6.0 | 0.00 | 0.01 | 0.00 | 81 | 1017.5 |
| 20260901163122 | 54 | 310 | 0.0 | 8.0 | 0.00 | 0.01 | 0.00 | 80 | 1017.3 |
| 20260901161511 | 53 | 268 | 1.0 | 7.0 | 0.00 | 0.01 | 0.00 | 81 | 1017.3 |
| 20260901160004 | 53 | 307 | 0.0 | 4.0 | 0.00 | 0.01 | 0.00 | 82 | 1017.1 |
| 20260901154559 | 53 | 285 | 0.0 | 6.0 | 0.00 | 0.01 | 0.00 | 83 | 1017.5 |
| 20260901153058 | 52 | 334 | 0.0 | 7.0 | 0.00 | 0.01 | 0.00 | 84 | 1017.9 |
| 20260901151557 | 52 | 282 | 2.0 | 6.0 | 0.00 | 0.01 | 0.00 | 84 | 1017.5 |
| 20260901150101 | 52 | 285 | 1.0 | 4.0 | 0.00 | 0.01 | 0.00 | 83 | 1017.9 |
| 20260901144555 | 52 | 325 | 0.0 | 5.0 | 0.00 | 0.01 | 0.00 | 83 | 1017.7 |
| 20260901143056 | 52 | 285 | 3.0 | 5.0 | 0.00 | 0.01 | 0.00 | 83 | 1017.6 |
| 20260901141550 | 52 | 283 | 0.0 | 0.0 | 0.00 | 0.01 | 0.00 | 83 | 1017.9 |
| 20260901140047 | 52 | 310 | 0.0 | 7.0 | 0.00 | 0.01 | 0.00 | 83 | 1017.9 |
| 20260901134600 | 53 | 315 | 0.0 | 6.0 | 0.00 | 0.01 | 0.01 | 82 | 1018.2 |
| 20260901133046 | 53 | 353 | 1.0 | 8.0 | 0.00 | 0.01 | 0.01 | 82 | 1018.2 |
| 20260901131542 | 53 | 341 | 0.0 | 0.0 | 0.00 | 0.01 | 0.01 | 82 | 1018.5 |
| 20260901130040 | 53 | 287 | 0.0 | 0.0 | 0.00 | 0.01 | 0.01 | 82 | 1018.9 |
| 20260901124545 | 53 | 312 | 0.0 | 0.0 | 0.00 | 0.01 | 0.01 | 84 | 1019.2 |
| 20260901123036 | 53 | 348 | 0.0 | 0.0 | 0.00 | 0.01 | 0.01 | 83 | 1019.3 |
| 20260901121534 | 53 | 317 | 0.0 | 0.0 | 0.00 | 0.01 | 0.01 | 83 | 1019.4 |
| 20260901120044 | 53 | 301 | 0.0 | 5.0 | 0.00 | 0.01 | 0.01 | 82 | 1019.5 |
| 20260901114536 | 53 | 311 | 0.0 | 0.0 | 0.00 | 0.01 | 0.01 | 82 | 1019.8 |
| 20260901113053 | 53 | 332 | 0.0 | 0.0 | 0.00 | 0.01 | 0.01 | 82 | 1019.9 |
| 20260901111529 | 53 | 311 | 0.0 | 0.0 | 0.00 | 0.01 | 0.01 | 81 | 1020.1 |
| 20260901110028 | 54 | 327 | 0.0 | 0.0 | 0.00 | 0.01 | 0.01 | 80 | 1020.1 |
| 20260901104532 | 54 | 327 | 0.0 | 0.0 | 0.00 | 0.01 | 0.01 | 79 | 1020.1 |
| 20260901103027 | 54 | 268 | 0.0 | 0.0 | 0.00 | 0.01 | 0.01 | 77 | 1020.0 |
| 20260901101626 | 55 | 258 | 0.0 | 0.0 | 0.00 | 0.01 | 0.01 | 76 | 1020.1 |
| 20260901100026 | 55 | 327 | 0.0 | 0.0 | 0.00 | 0.01 | 0.01 | 75 | 1020.3 |
| 20260901094526 | 56 | 321 | 0.0 | 0.0 | 0.00 | 0.01 | 0.01 | 74 | 1020.2 |
| 20260901093025 | 56 | 265 | 0.0 | 0.0 | 0.00 | 0.01 | 0.01 | 73 | 1020.1 |
| 20260901091527 | 56 | 311 | 0.0 | 0.0 | 0.00 | 0.01 | 0.01 | 73 | 1020.1 |
| 20260901090024 | 56 | 237 | 0.0 | 4.0 | 0.00 | 0.01 | 0.01 | 73 | 1020.5 |
| 20260901084531 | 56 | 308 | 0.0 | 0.0 | 0.00 | 0.01 | 0.01 | 72 | 1020.6 |
| 20260901083023 | 57 | 273 | 0.0 | 0.0 | 0.00 | 0.01 | 0.01 | 70 | 1020.6 |
| 20260901081523 | 57 | 319 | 0.0 | 0.0 | 0.00 | 0.01 | 0.01 | 69 | 1020.3 |
| 20260901080022 | 58 | 310 | 0.0 | 0.0 | 0.00 | 0.01 | 0.01 | 67 | 1020.3 |
| 20260901074526 | 59 | 280 | 0.0 | 0.0 | 0.00 | 0.01 | 0.01 | 66 | 1020.2 |
| 20260901073020 | 60 | 255 | 0.0 | 2.0 | 0.00 | 0.01 | 0.01 | 65 | 1020.4 |
| 20260901071520 | 61 | 292 | 0.0 | 0.0 | 0.00 | 0.01 | 0.01 | 62 | 1020.4 |
| 20260901070018 | 62 | 292 | 0.0 | 7.0 | 0.00 | 0.01 | 0.01 | 57 | 1020.4 |
| 20260901064521 | 63 | 242 | 0.0 | 8.0 | 0.00 | 0.01 | 0.01 | 54 | 1020.6 |
| 20260901063017 | 63 | 221 | 1.0 | 12.0 | 0.00 | 0.01 | 0.01 | 51 | 1020.5 |
| 20260901061515 | 64 | 242 | 1.0 | 17.0 | 0.00 | 0.01 | 0.01 | 52 | 1020.6 |
| 20260901060014 | 64 | 274 | 1.0 | 13.0 | 0.00 | 0.01 | 0.01 | 51 | 1020.6 |
| 20260901054514 | 64 | 270 | 5.0 | 18.0 | 0.00 | 0.01 | 0.01 | 50 | 1020.6 |
| 20260901053018 | 64 | 219 | 0.0 | 15.0 | 0.00 | 0.01 | 0.01 | 53 | 1020.7 |
| 20260901051512 | 64 | 254 | 0.0 | 9.0 | 0.00 | 0.01 | 0.01 | 56 | 1020.9 |
| 20260901050011 | 64 | 309 | 2.0 | 13.0 | 0.00 | 0.01 | 0.01 | 54 | 1021.0 |
| 20260901044514 | 64 | 301 | 1.0 | 15.0 | 0.00 | 0.01 | 0.01 | 50 | 1021.1 |
| 20260901043016 | 65 | 213 | 3.0 | 12.0 | 0.00 | 0.01 | 0.01 | 50 | 1021.3 |
| 20260901041506 | 64 | 279 | 4.0 | 18.0 | 0.00 | 0.01 | 0.01 | 50 | 1021.3 |